Hourly Weather Zydowek

Today, 2 March, Tuesday

Time Temperature Precipitation Wind Pressure Humidity
00:00 -1°C° 0 mm 2 mps 752 mmHg 93%
01:00 -1°C° 0 mm 2 mps 752 mmHg 95%
02:00 -1°C° 0 mm 2 mps 751 mmHg 94%
03:00 -1°C° 0 mm 2 mps 751 mmHg 93%
04:00 -1°C° 0 mm 3 mps 750 mmHg 93%
05:00 -1°C° 0 mm 3 mps 750 mmHg 91%
06:00 -1°C° 0 mm 3 mps 750 mmHg 90%
07:00 -1°C° 0 mm 3 mps 750 mmHg 89%
08:00 +1°C° 0 mm 3 mps 750 mmHg 81%
09:00 +3°C° 0 mm 4 mps 750 mmHg 73%
10:00 +5°C° 0 mm 4 mps 750 mmHg 66%
11:00 +6°C° 0 mm 4 mps 750 mmHg 63%
12:00 +7°C° 0 mm 4 mps 750 mmHg 61%
13:00 +8°C° 0 mm 4 mps 750 mmHg 58%
14:00 +8°C° 0 mm 4 mps 749 mmHg 60%
15:00 +8°C° 0 mm 4 mps 749 mmHg 61%
16:00 +8°C° 0 mm 4 mps 749 mmHg 63%
17:00 +7°C° 0 mm 3 mps 749 mmHg 68%
18:00 +5°C° 0 mm 3 mps 749 mmHg 74%
19:00 +4°C° 0 mm 3 mps 749 mmHg 80%
20:00 +4°C° 0 mm 2 mps 749 mmHg 82%
21:00 +3°C° 0 mm 2 mps 750 mmHg 84%
22:00 +3°C° 0 mm 2 mps 750 mmHg 86%
23:00 +3°C° 0 mm 2 mps 750 mmHg 87%

Tomorrow, 3 March, Wednesday

Time Temperature Precipitation Wind Pressure Humidity
00:00 +3°C° 0 mm 1 mps 750 mmHg 87%
01:00 +3°C° 0 mm 1 mps 750 mmHg 88%
02:00 +3°C° 0 mm 1 mps 750 mmHg 88%
03:00 +2°C° 0 mm 1 mps 749 mmHg 88%
04:00 +2°C° 0 mm 1 mps 749 mmHg 88%
05:00 +2°C° 0 mm 1 mps 749 mmHg 88%
06:00 +2°C° 0 mm 1 mps 749 mmHg 88%
07:00 +2°C° 0 mm 1 mps 749 mmHg 87%
08:00 +4°C° 0 mm 1 mps 748 mmHg 80%
09:00 +6°C° 0 mm 1 mps 748 mmHg 73%
10:00 +8°C° 0 mm 1 mps 748 mmHg 66%
11:00 +9°C° 0 mm 1 mps 747 mmHg 61%
12:00 +10°C° 0 mm 1 mps 747 mmHg 56%
13:00 +10°C° 0 mm 2 mps 747 mmHg 51%
14:00 +11°C° 0 mm 1 mps 746 mmHg 53%
15:00 +11°C° 0 mm 1 mps 745 mmHg 54%
16:00 +11°C° 0 mm 1 mps 744 mmHg 56%
17:00 +10°C° 0 mm 1 mps 744 mmHg 60%
18:00 +8°C° 0 mm 2 mps 744 mmHg 64%
19:00 +6°C° 0 mm 2 mps 744 mmHg 68%
20:00 +6°C° 0 mm 2 mps 743 mmHg 69%
21:00 +4°C° 0 mm 3 mps 743 mmHg 71%
22:00 +4°C° 0 mm 3 mps 742 mmHg 73%
23:00 +4°C° 0 mm 4 mps 742 mmHg 76%

Day after tomorrow, 4 March, Thursday

Time Temperature Precipitation Wind Pressure Humidity
00:00 +3°C° 0 mm 4 mps 742 mmHg 79%
01:00 +3°C° 0 mm 4 mps 741 mmHg 82%
02:00 +3°C° 0 mm 4 mps 741 mmHg 83%
03:00 +1°C° 0 mm 4 mps 740 mmHg 84%
04:00 +1°C° 0 mm 4 mps 739 mmHg 86%
05:00 +1°C° 0 mm 4 mps 739 mmHg 85%
06:00 +1°C° 0 mm 4 mps 739 mmHg 84%
07:00 +1°C° 0 mm 4 mps 739 mmHg 83%
08:00 +3°C° 0 mm 5 mps 738 mmHg 78%
09:00 +6°C° 0 mm 5 mps 738 mmHg 73%
10:00 +7°C° 0 mm 6 mps 737 mmHg 68%
11:00 +8°C° 0 mm 6 mps 737 mmHg 67%
12:00 +9°C° 0 mm 6 mps 737 mmHg 66%
13:00 +9°C° 0 mm 6 mps 737 mmHg 65%
14:00 +9°C° 0 mm 6 mps 736 mmHg 66%
15:00 +9°C° 0 mm 5 mps 735 mmHg 66%
16:00 +9°C° 0 mm 5 mps 735 mmHg 66%
17:00 +8°C° 0 mm 4 mps 735 mmHg 71%
18:00 +8°C° 0 mm 3 mps 735 mmHg 76%
19:00 +7°C° 0 mm 2 mps 735 mmHg 80%
20:00 +5°C° 0.4 mm 3 mps 735 mmHg 84%
21:00 +4°C° 0.4 mm 3 mps 735 mmHg 87%
22:00 +3°C° 0.4 mm 4 mps 735 mmHg 91%
23:00 +2°C° 0.6 mm 3 mps 735 mmHg 92%

5 March, Friday

Time Temperature Precipitation Wind Pressure Humidity
00:00 +2°C° 0.6 mm 3 mps 735 mmHg 94%
01:00 +1°C° 0.6 mm 3 mps 735 mmHg 95%
02:00 +1°C° 0.2 mm 3 mps 735 mmHg 94%
03:00 0°C° 0.2 mm 3 mps 735 mmHg 94%
04:00 0°C° 0.2 mm 3 mps 735 mmHg 93%
05:00 -1°C° 0 mm 3 mps 736 mmHg 90%
06:00 -2°C° 0 mm 4 mps 736 mmHg 86%
07:00 -3°C° 0 mm 4 mps 736 mmHg 82%
08:00 -2°C° 0.2 mm 4 mps 737 mmHg 82%
09:00 -2°C° 0.2 mm 4 mps 737 mmHg 82%
10:00 -2°C° 0.2 mm 4 mps 737 mmHg 82%
11:00 -1°C° 0.1 mm 4 mps 738 mmHg 75%
12:00 -1°C° 0.1 mm 4 mps 738 mmHg 67%
13:00 0°C° 0.1 mm 4 mps 739 mmHg 60%
14:00 0°C° 0 mm 4 mps 739 mmHg 57%
15:00 0°C° 0 mm 4 mps 739 mmHg 55%
16:00 -1°C° 0 mm 4 mps 739 mmHg 52%
17:00 0°C° 0 mm 3 mps 740 mmHg 56%
18:00 -1°C° 0 mm 3 mps 741 mmHg 60%
19:00 -2°C° 0 mm 2 mps 741 mmHg 64%
20:00 -2°C° 0 mm 2 mps 742 mmHg 63%
21:00 -2°C° 0 mm 2 mps 742 mmHg 62%
22:00 -3°C° 0 mm 2 mps 743 mmHg 61%
23:00 -3°C° 0 mm 2 mps 743 mmHg 62%

6 March, Saturday

Time Temperature Precipitation Wind Pressure Humidity
00:00 -2°C° 0 mm 2 mps 744 mmHg 62%
01:00 -2°C° 0 mm 2 mps 744 mmHg 63%
02:00 -4°C° 0 mm 3 mps 744 mmHg 66%
03:00 -4°C° 0 mm 3 mps 744 mmHg 69%
04:00 -4°C° 0 mm 4 mps 745 mmHg 73%
05:00 -4°C° 0 mm 4 mps 745 mmHg 72%
06:00 -4°C° 0 mm 4 mps 746 mmHg 72%
07:00 -4°C° 0 mm 4 mps 746 mmHg 72%
08:00 -4°C° 0 mm 4 mps 747 mmHg 63%
09:00 -3°C° 0 mm 4 mps 747 mmHg 55%
10:00 -2°C° 0 mm 4 mps 747 mmHg 47%
11:00 -2°C° 0 mm 4 mps 747 mmHg 44%
12:00 -1°C° 0 mm 4 mps 747 mmHg 41%
13:00 -1°C° 0 mm 4 mps 747 mmHg 39%
14:00 -1°C° 0 mm 4 mps 747 mmHg 40%
15:00 -1°C° 0 mm 4 mps 747 mmHg 42%
16:00 -1°C° 0 mm 4 mps 747 mmHg 43%
17:00 -1°C° 0 mm 3 mps 747 mmHg 50%
18:00 -2°C° 0 mm 3 mps 747 mmHg 56%
19:00 -4°C° 0 mm 3 mps 747 mmHg 62%
20:00 -4°C° 0 mm 3 mps 747 mmHg 63%
21:00 -4°C° 0 mm 4 mps 747 mmHg 63%
22:00 -4°C° 0 mm 4 mps 747 mmHg 63%
23:00 -4°C° 0 mm 4 mps 747 mmHg 62%

7 March, Sunday

Time Temperature Precipitation Wind Pressure Humidity
00:00 -5°C° 0 mm 5 mps 746 mmHg 61%
01:00 -5°C° 0 mm 5 mps 746 mmHg 59%
02:00 -4°C° 0 mm 5 mps 746 mmHg 59%
03:00 -4°C° 0 mm 6 mps 745 mmHg 59%
04:00 -4°C° 0 mm 6 mps 744 mmHg 58%
05:00 -4°C° 0 mm 6 mps 744 mmHg 59%
06:00 -4°C° 0 mm 7 mps 744 mmHg 60%
07:00 -4°C° 0 mm 7 mps 743 mmHg 61%
08:00 -3°C° 0 mm 7 mps 743 mmHg 61%
09:00 -2°C° 0 mm 8 mps 743 mmHg 61%
10:00 -1°C° 0 mm 8 mps 742 mmHg 60%
11:00 -1°C° 0 mm 8 mps 742 mmHg 60%
12:00 -1°C° 0 mm 8 mps 741 mmHg 59%
13:00 0°C° 0 mm 8 mps 741 mmHg 58%
14:00 0°C° 0 mm 8 mps 740 mmHg 58%
15:00 0°C° 0 mm 7 mps 739 mmHg 57%
16:00 +1°C° 0 mm 6 mps 739 mmHg 56%
17:00 -1°C° 0 mm 6 mps 739 mmHg 60%
18:00 -1°C° 0 mm 5 mps 738 mmHg 63%
19:00 -2°C° 0 mm 4 mps 738 mmHg 67%
20:00 -2°C° 0 mm 4 mps 738 mmHg 72%
21:00 -2°C° 0 mm 5 mps 737 mmHg 76%
22:00 -2°C° 0 mm 5 mps 737 mmHg 81%
23:00 -2°C° 0.2 mm 5 mps 737 mmHg 85%
Show more